{"data":{"norad_id":59899,"epoch":"2026-09-20T23:11:11.880672Z","epoch_age_seconds":134194,"freshness":"FRESH","line1":"1 59899U 24100Q   26263.96610973 -.00000993  00000+0 -26553-4 0  9994","line2":"2 59899  43.0039 102.4216 0001546 270.7363  89.3312 15.27568796131019","mean_motion":15.27568796,"eccentricity":0.0001546,"inclination_deg":43.0039,"raan_deg":102.4216,"arg_perigee_deg":270.7363,"mean_anomaly_deg":89.3312,"bstar":-2.6553e-5,"rev_number":13101,"period_min":94.267440116,"perigee_km":482.0219004942,"apogee_km":484.14338960845,"semimajor_km":6861.2196450513,"source":"CELESTRAK","updated_at":"2026-09-22T09:00:49.108453Z"}}